Cahokia, IL

9:26 AM CDT on June 24, 2017 (GMT -0500)
Saint Louis Downtown

Weather History for KCPS - January, 2012

Change the Weather History Date:

Saturday, January 7, 2012

  Actual Average Record
Temperature  
Mean Temperature 44 °F -  
Max Temperature 51 °F 26 °F 72 °F (2008)
Min Temperature 36 °F 9 °F -11 °F (2014)
Degree Days  
Heating Degree Days 21    
Moisture  
Dew Point 26 °F    
Average Humidity 53    
Maximum Humidity 70    
Minimum Humidity 35    
Precipitation  
Precipitation 0.00 in - - ()
Sea Level Pressure  
Sea Level Pressure 30.12 in    
Wind  
Wind Speed 7 mph (NNW)    
Max Wind Speed 13 mph    
Max Gust Speed -    
Visibility 10 miles    
Events      
Averages and records for this station are not official NWS values.
T = Trace of Precipitation, MM = Missing Value Source: NWS Daily Summary

Daily Weather History Graph

Daily Weather History Graph

Search for Another Location

Airport or City:

Trip Planner

Search our weather history database for the weather conditions in past years. The results will help you decide how hot, cold, wet, or windy it might be!

Date:

Astronomy

Jan. 07, 2012 Rise Set
Actual Time 7:18 AM CST 4:55 PM CST
Civil Twilight 6:49 AM CST 5:24 PM CST
Nautical Twilight 6:16 AM CST 5:57 PM CST
Astronomical Twilight 5:44 AM CST 6:29 PM CST
Moon 3:39 PM CST (1/7) 5:49 AM CST (1/7)
Length of Visible Light 10h 35m
Length of Day
9h 36m
Waxing Gibbous, 97% of the Moon is Illuminated
Jan 7
Waxing Gibbous
Jan 9
Full
Jan 16
Last Quarter
Jan 23
New
Jan 30
First Quarter

Hourly Weather History & Observations

Time (CST) Temp. Windchill Dew Point Humidity Pressure Visibility Wind Dir Wind Speed Gust Speed Precip Events Conditions
12:53 AM 42.1 °F 39.2 °F 27.0 °F 55% 29.93 in 10.0 mi North 4.6 mph - N/A   Clear
1:53 AM 45.0 °F 40.1 °F 25.0 °F 46% 29.97 in 10.0 mi North 9.2 mph - N/A   Clear
2:53 AM 44.1 °F 39.5 °F 26.1 °F 49% 29.99 in 10.0 mi NNW 8.1 mph - N/A   Clear
3:53 AM 43.0 °F 37.7 °F 27.0 °F 53% 30.01 in 10.0 mi NNW 9.2 mph - N/A   Clear
4:53 AM 41.0 °F 36.4 °F 28.0 °F 60% 30.03 in 10.0 mi NW 6.9 mph - N/A   Clear
5:53 AM 41.0 °F 35.8 °F 28.0 °F 60% 30.06 in 10.0 mi NW 8.1 mph - N/A   Clear
6:53 AM 39.0 °F 34.8 °F 27.0 °F 62% 30.07 in 10.0 mi NNW 5.8 mph - N/A   Clear
7:53 AM 39.0 °F 33.4 °F 27.0 °F 62% 30.09 in 10.0 mi NNW 8.1 mph - N/A   Clear
8:53 AM 42.1 °F 36.1 °F 27.0 °F 55% 30.12 in 10.0 mi NNW 10.4 mph - N/A   Clear
9:53 AM 45.0 °F 38.9 °F 27.0 °F 49% 30.15 in 10.0 mi North 12.7 mph - N/A   Clear
10:53 AM 46.9 °F - 27.0 °F 46% 30.16 in 10.0 mi NNW 9.2 mph - N/A   Clear
11:53 AM 50.0 °F - 26.1 °F 39% 30.14 in 10.0 mi NNW 6.9 mph - N/A   Clear
12:53 PM 51.1 °F - 26.1 °F 38% 30.13 in 10.0 mi NW 11.5 mph - N/A   Clear
2:53 PM 51.1 °F - 24.1 °F 35% 30.13 in 10.0 mi North 8.1 mph - N/A   Clear
3:53 PM 50.0 °F - 24.1 °F 36% 30.14 in 10.0 mi North 6.9 mph - N/A   Clear
4:53 PM 46.0 °F 43.9 °F 25.0 °F 44% 30.16 in 10.0 mi NNW 4.6 mph - N/A   Clear
5:53 PM 41.0 °F - 24.1 °F 51% 30.17 in 10.0 mi Calm Calm - N/A   Clear
6:53 PM 41.0 °F - 26.1 °F 55% 30.17 in 10.0 mi Calm Calm - N/A   Mostly Cloudy
8:53 PM 37.0 °F - 28.0 °F 70% 30.22 in 10.0 mi Calm Calm - N/A   Overcast
9:53 PM 37.0 °F 34.5 °F 28.0 °F 70% 30.23 in 10.0 mi NE 3.5 mph - N/A   Clear
10:53 PM 37.9 °F - 28.0 °F 68% 30.25 in 10.0 mi Calm Calm - N/A   Clear
11:53 PM 36.0 °F - 27.0 °F 70% 30.25 in 10.0 mi Calm Calm - N/A   Clear